This demonstration page uses our WeatherBlox Daily Observations layout. Learn more.

Left ArrowRight Arrow

39.92423, -83.80882

Hourly Observations for November 13, 2020

Temp ( °F °C ) Dew Point ( °F °C ) Humidity (%) Winds ( mph kmh ) Pressure ( in mb ) Visibility ( mi km ) Precip ( " mm )
12:56 am 00:56 Clear 35 1.7 32 undefined 89 89 N N/A 30.03 1017 10 16 N/A
1:56 am 01:56 Clear 32 undefined 32 undefined 100 100 N N/A 30.04 1017 10 16 N/A
2:56 am 02:56 Clear 33 0.6 33 0.6 100 100 N N/A 30.04 1017 9 14 N/A
3:56 am 03:56 Mostly Cloudy 34 1.1 34 1.1 100 100 N N/A 30.03 1017 9 14 N/A
4:56 am 04:56 Cloudy 35 1.7 35 1.7 100 100 SW 5 7 30.04 1017 9 14 N/A
5:56 am 05:56 Mostly Cloudy 36 2.2 35 1.7 97 97 SW 6 9 30.06 1018 9 14 N/A
6:56 am 06:56 Mostly Cloudy 35 1.7 35 1.7 100 100 WSW 5 7 30.08 1019 10 16 N/A
7:56 am 07:56 Sunny 34 1.1 34 1.1 100 100 W 5 7 30.09 1019 8 13 N/A
8:56 am 08:56 Sunny 43 6.1 38 3.3 82 82 W 7 11 30.10 1019 10 16 N/A
9:56 am 09:56 Sunny 47 8.3 38 3.3 71 71 WNW 7 11 30.12 1020 10 16 N/A
10:56 am 10:56 Sunny 51 10.6 38 3.3 61 61 WNW 10 17 30.13 1020 10 16 N/A
11:56 am 11:56 Sunny 53 11.7 38 3.3 57 57 WNW 15 24 30.13 1020 10 16 N/A
12:56 pm 12:56 Partly Cloudy 55 12.8 39 3.9 55 55 WNW 10 17 30.12 1020 10 16 N/A
1:56 pm 13:56 Mostly Cloudy 57 13.9 36 2.2 45 45 WNW 15 24 30.12 1020 10 16 N/A
2:56 pm 14:56 Mostly Sunny 54 12.2 38 3.3 55 55 NW 15 24 30.14 1021 10 16 N/A
3:56 pm 15:56 Sunny 49 9.4 37 2.8 64 64 NW 12 19 30.16 1021 10 16 N/A
4:56 pm 16:56 Sunny 46 7.8 34 1.1 63 63 WNW 8 13 30.17 1022 10 16 N/A
5:56 pm 17:56 Clear 41 5 33 0.6 73 73 WNW 8 13 30.18 1022 10 16 N/A
6:56 pm 18:56 Clear 39 3.9 32 undefined 76 76 WNW 8 13 30.20 1023 10 16 N/A
7:56 pm 19:56 Clear 37 2.8 30 -1.1 76 76 NW 5 7 30.21 1023 10 16 N/A
8:56 pm 20:56 Clear 35 1.7 31 -0.6 85 85 NNW 3 6 30.21 1023 10 16 N/A
9:56 pm 21:56 Clear 33 0.6 30 -1.1 89 89 N 6 9 30.22 1023 10 16 N/A
10:56 pm 22:56 Clear 30 -1.1 29 -1.7 96 96 NNW 3 6 30.22 1023 10 16 N/A
11:56 pm 23:56 Clear 31 -0.6 29 -1.7 92 92 N 5 7 30.21 1023 10 16 N/A

Powered by AerisWeather